DW1653 Weather Reports


Display with metric or nautical units.
time (UTC)temp
F
wind
direction
speed
MPH
gust
MPH
rain 1hr
in
rain 24hr
in
rain mn
in
humidity
%
barometer
mb
20260906051830 70 304 2.0 4.0 0.00 0.00 0.00 78 1012.1
20260906051321 70 355 2.0 4.0 0.00 0.00 0.00 78 1012.2
20260906050853 70 335 2.0 4.0 0.00 0.00 0.00 78 1012.2
20260906050327 70 315 2.0 4.0 0.00 0.00 0.00 77 1012.2
20260906045817 70 341 3.0 4.0 0.00 0.00 0.00 77 1012.2
20260906045350 70 327 2.0 4.0 0.00 0.00 0.00 77 1012.3
20260906044820 70 330 2.0 5.0 0.00 0.00 0.00 77 1012.3
20260906044331 70 329 3.0 5.0 0.00 0.00 0.00 77 1012.2
20260906043842 70 337 3.0 5.0 0.00 0.00 0.00 77 1012.3
20260906043316 70 326 2.0 4.0 0.00 0.00 0.00 77 1012.2
20260906042827 70 20 2.0 6.0 0.00 0.00 0.00 77 1012.2
20260906042318 70 335 2.0 6.0 0.00 0.00 0.00 77 1012.3
20260906041830 70 333 2.0 4.0 0.00 0.00 0.00 77 1012.3
20260906041325 70 355 2.0 5.0 0.00 0.00 0.00 77 1012.2
20260906040820 70 348 2.0 5.0 0.00 0.00 0.00 77 1012.3
20260906040330 70 331 1.0 4.0 0.00 0.00 0.00 77 1012.3
20260906035822 70 348 2.0 4.0 0.00 0.00 0.00 77 1012.3
20260906035333 70 349 2.0 6.0 0.00 0.00 0.00 77 1012.2
20260906034844 70 355 2.0 6.0 0.00 0.00 0.00 77 1012.3
20260906034315 70 5 2.0 4.0 0.00 0.00 0.00 77 1012.2
20260906033826 70 360 1.0 4.0 0.00 0.00 0.00 77 1012.2
20260906033324 70 5 1.0 2.0 0.00 0.00 0.00 77 1012.2
20260906032816 70 331 1.0 3.0 0.00 0.00 0.00 77 1012.1
20260906032348 70 11 2.0 4.0 0.00 0.00 0.00 77 1012.0
20260906031841 70 345 1.0 4.0 0.00 0.00 0.00 77 1012.1
20260906031312 70 334 1.0 4.0 0.00 0.00 0.00 77 1012.0
20260906030826 70 355 3.0 4.0 0.00 0.00 0.00 77 1011.9
20260906030321 70 355 2.0 4.0 0.00 0.00 0.00 77 1011.9
20260906025832 70 360 1.0 4.0 0.00 0.00 0.00 77 1011.9
20260906025324 70 342 2.0 5.0 0.00 0.00 0.00 76 1012.0
20260906024836 70 5 2.0 5.0 0.00 0.00 0.00 76 1012.1
20260906024330 70 5 1.0 3.0 0.00 0.00 0.00 76 1012.1
20260906023822 71 317 1.0 3.0 0.00 0.00 0.00 76 1012.0
20260906023334 71 336 2.0 3.0 0.00 0.00 0.00 76 1011.9
20260906022825 71 330 1.0 3.0 0.00 0.00 0.00 76 1011.9
20260906022317 71 329 2.0 3.0 0.00 0.00 0.00 76 1011.8
20260906021829 71 355 1.0 4.0 0.00 0.00 0.00 76 1011.8
20260906021319 71 321 1.0 4.0 0.00 0.00 0.00 76 1011.8
20260906020831 71 347 1.0 3.0 0.00 0.00 0.00 77 1011.8
20260906020327 71 340 0.0 3.0 0.00 0.00 0.00 76 1011.8
20260906015821 71 316 0.0 2.0 0.00 0.00 0.00 76 1011.7
20260906015333 72 266 0.0 1.0 0.00 0.00 0.00 76 1011.7
20260906014844 72 267 0.0 1.0 0.00 0.00 0.00 76 1011.7
20260906014334 72 267 0.0 1.0 0.00 0.00 0.00 76 1011.6
20260906013845 72 267 0.0 1.0 0.00 0.00 0.00 75 1011.6
20260906013335 72 267 1.0 1.0 0.00 0.00 0.00 75 1011.6
20260906012826 72 267 0.0 1.0 0.00 0.00 0.00 75 1011.6
20260906012321 72 267 1.0 2.0 0.00 0.00 0.00 74 1011.5
20260906011832 72 266 1.0 2.0 0.00 0.00 0.00 74 1011.5
20260906011326 72 267 0.0 2.0 0.00 0.00 0.00 74 1011.6
20260906010838 73 267 1.0 3.0 0.00 0.00 0.00 74 1011.5
20260906010331 73 267 1.0 3.0 0.00 0.00 0.00 73 1011.4
20260906005823 73 267 0.0 2.0 0.00 0.00 0.00 73 1011.4
20260906005316 73 266 1.0 2.0 0.00 0.00 0.00 73 1011.3
20260906004828 73 267 1.0 2.0 0.00 0.00 0.00 72 1011.2
20260906004319 73 267 0.0 1.0 0.00 0.00 0.00 72 1011.1
20260906003851 73 267 0.0 2.0 0.00 0.00 0.00 72 1011.1
20260906003320 73 267 1.0 3.0 0.00 0.00 0.00 71 1011.1
20260906002815 74 180 1.0 2.0 0.00 0.00 0.00 71 1011.1
20260906002327 74 180 1.0 2.0 0.00 0.00 0.00 70 1011.0
20260906001818 74 180 1.0 1.0 0.00 0.00 0.00 70 1010.8
20260906001330 74 180 0.0 1.0 0.00 0.00 0.00 69 1010.9
20260906000844 75 180 0.0 0.0 0.00 0.00 0.00 69 1010.8
20260906000334 75 180 0.0 0.0 0.00 0.00 0.00 68 1010.7
20260905235826 75 180 0.0 0.0 0.00 0.00 0.00 68 1010.7
20260905235318 75 180 0.0 1.0 0.00 0.00 0.00 68 1010.5
20260905234830 75 180 0.0 1.0 0.00 0.00 0.00 67 1010.6
20260905234328 76 180 0.0 1.0 0.00 0.00 0.00 66 1010.6
20260905233819 76 180 0.0 1.0 0.00 0.00 0.00 66 1010.6
20260905233331 76 180 1.0 1.0 0.00 0.00 0.00 66 1010.5
20260905232822 76 180 0.0 2.0 0.00 0.00 0.00 66 1010.5
20260905232313 76 180 1.0 2.0 0.00 0.00 0.00 65 1010.5
20260905231846 76 180 1.0 2.0 0.00 0.00 0.00 65 1010.4
20260905231320 76 180 0.0 1.0 0.00 0.00 0.00 66 1010.6
20260905230831 76 180 0.0 1.0 0.00 0.00 0.00 66 1010.6
20260905230343 76 180 0.0 1.0 0.00 0.00 0.00 65 1010.6
20260905225854 76 180 0.0 2.0 0.00 0.00 0.00 65 1010.6
20260905225344 77 180 1.0 2.0 0.00 0.00 0.00 65 1010.6
20260905224819 77 180 0.0 2.0 0.00 0.00 0.00 65 1010.5
20260905224331 77 180 0.0 3.0 0.00 0.00 0.00 65 1010.6
20260905223842 77 180 1.0 3.0 0.00 0.00 0.00 65 1010.5
20260905223332 77 155 2.0 3.0 0.00 0.00 0.00 65 1010.5
20260905222823 77 123 2.0 4.0 0.00 0.00 0.00 65 1010.5
20260905222315 77 130 2.0 4.0 0.00 0.00 0.00 65 1010.4
20260905221846 77 103 1.0 3.0 0.00 0.00 0.00 65 1010.3
20260905221318 77 147 2.0 4.0 0.00 0.00 0.00 65 1010.3
20260905220833 78 80 1.0 4.0 0.00 0.00 0.00 63 1010.3
20260905220343 78 126 2.0 6.0 0.00 0.00 0.00 64 1010.4
20260905215818 78 97 2.0 6.0 0.00 0.00 0.00 63 1010.3
20260905215350 79 133 4.0 5.0 0.00 0.00 0.00 60 1010.3
20260905214824 81 88 3.0 5.0 0.00 0.00 0.00 58 1010.2
20260905214336 81 101 2.0 6.0 0.00 0.00 0.00 54 1010.2
20260905213827 82 61 3.0 6.0 0.00 0.00 0.00 55 1010.1
20260905213341 81 65 2.0 6.0 0.00 0.00 0.00 55 1010.1
20260905212815 81 46 3.0 5.0 0.00 0.00 0.00 57 1010.2
20260905212346 81 96 1.0 4.0 0.00 0.00 0.00 55 1010.2
20260905211816 80 117 1.0 4.0 0.00 0.00 0.00 58 1010.1
20260905211328 80 107 1.0 4.0 0.00 0.00 0.00 59 1010.0
20260905210823 80 129 2.0 4.0 0.00 0.00 0.00 60 1010.0
20260905210318 79 76 1.0 4.0 0.00 0.00 0.00 60 1010.0
20260905205833 79 79 2.0 4.0 0.00 0.00 0.00 59 1010.0
20260905205324 79 112 1.0 5.0 0.00 0.00 0.00 59 1010.1
20260905204818 80 53 1.0 5.0 0.00 0.00 0.00 57 1010.1
20260905204349 81 76 2.0 5.0 0.00 0.00 0.00 55 1010.1
20260905203819 81 130 1.0 4.0 0.00 0.00 0.00 55 1010.1
20260905203314 81 117 1.0 4.0 0.00 0.00 0.00 56 1010.1
20260905202829 80 103 2.0 4.0 0.00 0.00 0.00 56 1010.1
20260905202324 79 111 1.0 4.0 0.00 0.00 0.00 57 1010.1
20260905201816 78 131 1.0 5.0 0.00 0.00 0.00 59 1010.1
20260905201328 78 123 2.0 5.0 0.00 0.00 0.00 59 1010.1
20260905200818 78 52 1.0 4.0 0.00 0.00 0.00 61 1010.2
20260905200330 79 53 2.0 7.0 0.00 0.00 0.00 61 1010.1
20260905195820 79 53 2.0 7.0 0.00 0.00 0.00 60 1010.1
20260905195332 80 141 2.0 5.0 0.00 0.00 0.00 60 1010.2
20260905194824 81 38 2.0 7.0 0.00 0.00 0.00 58 1010.2
20260905194318 82 78 4.0 8.0 0.00 0.00 0.00 56 1010.2
20260905193853 82 57 3.0 8.0 0.00 0.00 0.00 57 1010.2
20260905193323 82 78 3.0 6.0 0.00 0.00 0.00 57 1010.2
20260905192834 82 82 3.0 8.0 0.00 0.00 0.00 58 1010.3
20260905192326 81 92 3.0 8.0 0.00 0.00 0.00 57 1010.3
20260905191817 81 65 3.0 7.0 0.00 0.00 0.00 57 1010.3
20260905191329 80 69 3.0 6.0 0.00 0.00 0.00 59 1010.3
20260905190840 79 196 1.0 7.0 0.00 0.00 0.00 63 1010.3
20260905190351 79 33 4.0 8.0 0.00 0.00 0.00 61 1010.4
20260905185821 78 59 2.0 8.0 0.00 0.00 0.00 60 1010.4
20260905185339 79 46 3.0 9.0 0.00 0.00 0.00 59 1010.4
20260905184830 79 52 6.0 9.0 0.00 0.00 0.00 58 1010.4
20260905184320 79 46 3.0 9.0 0.00 0.00 0.00 58 1010.4
20260905183832 79 13 3.0 9.0 0.00 0.00 0.00 57 1010.5
20260905182815 79 106 2.0 10.0 0.00 0.00 0.00 59 1010.5
20260905182325 80 63 4.0 10.0 0.00 0.00 0.00 59 1010.5
20260905181818 81 20 3.0 8.0 0.00 0.00 0.00 56 1010.5
20260905181329 81 36 6.0 9.0 0.00 0.00 0.00 54 1010.5
20260905180845 82 88 2.0 9.0 0.00 0.00 0.00 56 1010.4
20260905180315 82 25 5.0 9.0 0.00 0.00 0.00 56 1010.4
20260905175827 82 122 2.0 9.0 0.00 0.00 0.00 57 1010.5
20260905175318 81 80 4.0 9.0 0.00 0.00 0.00 59 1010.6
20260905174830 81 94 3.0 7.0 0.00 0.00 0.00 60 1010.6
20260905174321 79 42 2.0 8.0 0.00 0.00 0.00 62 1010.5
20260905173815 79 84 4.0 10.0 0.00 0.00 0.00 61 1010.5
20260905173326 80 51 4.0 10.0 0.00 0.00 0.00 60 1010.4
20260905172822 81 87 3.0 9.0 0.00 0.00 0.00 60 1010.4
20260905172333 81 65 4.0 7.0 0.00 0.00 0.00 59 1010.4
20260905171824 80 63 3.0 8.0 0.00 0.00 0.00 60 1010.5
20260905171315 79 57 2.0 8.0 0.00 0.00 0.00 65 1010.6
20260905170847 78 22 2.0 7.0 0.00 0.00 0.00 65 1010.6
20260905170316 78 80 3.0 10.0 0.00 0.00 0.00 64 1010.7
20260905165828 78 70 2.0 10.0 0.00 0.00 0.00 63 1010.7
20260905165320 78 27 2.0 7.0 0.00 0.00 0.00 64 1010.8
20260905164850 78 104 2.0 8.0 0.00 0.00 0.00 63 1010.8
20260905164321 78 105 2.0 9.0 0.00 0.00 0.00 62 1010.9
20260905163836 79 66 2.0 8.0 0.00 0.00 0.00 61 1010.9
20260905163326 79 87 2.0 8.0 0.00 0.00 0.00 61 1010.9
20260905162820 79 55 3.0 7.0 0.00 0.00 0.00 62 1010.9
20260905161843 80 121 4.0 11.0 0.00 0.00 0.00 60 1010.8
20260905161333 81 116 3.0 11.0 0.00 0.00 0.00 60 1010.8
20260905160844 81 63 5.0 9.0 0.00 0.00 0.00 60 1010.8
20260905160315 81 126 2.0 8.0 0.00 0.00 0.00 61 1010.8
20260905155827 81 111 1.0 8.0 0.00 0.00 0.00 60 1011.0
20260905155318 81 60 2.0 7.0 0.00 0.00 0.00 59 1011.0
20260905154814 81 338 4.0 8.0 0.00 0.00 0.00 57 1010.9
20260905154326 81 122 3.0 11.0 0.00 0.00 0.00 58 1010.9
20260905153817 82 63 3.0 12.0 0.00 0.00 0.00 57 1010.7
20260905153329 83 86 3.0 7.0 0.00 0.00 0.00 56 1010.6
20260905152841 83 101 2.0 9.0 0.00 0.00 0.00 57 1010.7
20260905152331 83 55 4.0 9.0 0.00 0.00 0.00 54 1010.6
20260905151846 83 61 3.0 6.0 0.00 0.00 0.00 55 1010.7
20260905151316 82 15 3.0 6.0 0.00 0.00 0.00 55 1010.7
20260905150851 82 306 2.0 5.0 0.00 0.00 0.00 56 1010.7
20260905150321 82 20 3.0 5.0 0.00 0.00 0.00 53 1010.8
20260905145816 82 232 2.0 8.0 0.00 0.00 0.00 53 1010.8
20260905145331 81 317 2.0 9.0 0.00 0.00 0.00 55 1010.8
20260905144822 81 331 5.0 9.0 0.00 0.00 0.00 55 1010.7
20260905144316 81 286 3.0 7.0 0.00 0.00 0.00 56 1010.7
20260905143828 80 36 2.0 7.0 0.00 0.00 0.00 56 1010.5
20260905143321 80 74 1.0 6.0 0.00 0.00 0.00 58 1010.5
20260905142833 80 327 3.0 6.0 0.00 0.00 0.00 58 1010.4
20260905142325 79 328 4.0 6.0 0.00 0.00 0.00 58 1010.5
20260905141821 79 296 3.0 6.0 0.00 0.00 0.00 60 1010.5
20260905141332 79 330 3.0 6.0 0.00 0.00 0.00 61 1010.5
20260905140843 78 346 2.0 7.0 0.00 0.00 0.00 62 1010.4
20260905140334 78 344 2.0 7.0 0.00 0.00 0.00 62 1010.5
20260905135826 78 336 2.0 7.0 0.00 0.00 0.00 63 1010.5
20260905135317 77 325 2.0 7.0 0.00 0.00 0.00 63 1010.5
20260905134829 77 355 2.0 7.0 0.00 0.00 0.00 65 1010.6
20260905134320 77 5 4.0 7.0 0.00 0.00 0.00 64 1010.5
20260905133816 76 10 4.0 7.0 0.00 0.00 0.00 65 1010.5
20260905133327 76 325 4.0 7.0 0.00 0.00 0.00 66 1010.5
20260905132818 76 327 3.0 6.0 0.00 0.00 0.00 67 1010.5
20260905132330 75 9 4.0 6.0 0.00 0.00 0.00 68 1010.6
20260905131821 75 350 2.0 6.0 0.00 0.00 0.00 68 1010.6
20260905131331 75 355 1.0 8.0 0.00 0.00 0.00 68 1010.6
20260905130823 74 327 2.0 8.0 0.00 0.00 0.00 69 1010.6
20260905130334 74 329 3.0 7.0 0.00 0.00 0.00 69 1010.7
20260905125826 74 15 4.0 7.0 0.00 0.00 0.00 70 1010.7
20260905125337 74 345 4.0 7.0 0.00 0.00 0.00 70 1010.8
20260905124832 73 327 3.0 7.0 0.00 0.00 0.00 71 1010.9
20260905124323 73 355 3.0 8.0 0.00 0.00 0.00 71 1010.9
20260905123815 73 5 4.0 9.0 0.00 0.00 0.00 72 1010.9
20260905123326 73 300 4.0 9.0 0.00 0.00 0.00 72 1011.0
20260905122817 72 43 4.0 9.0 0.00 0.00 0.00 72 1011.1
20260905122349 72 344 4.0 9.0 0.00 0.00 0.00 73 1011.1
20260905121822 72 339 5.0 9.0 0.00 0.00 0.00 72 1011.1
20260905120827 72 342 3.0 6.0 0.00 0.00 0.00 73 1011.0
20260905120323 72 355 3.0 6.0 0.00 0.00 0.00 73 1010.9
20260905115818 72 348 2.0 4.0 0.00 0.00 0.00 74 1010.9
20260905115329 72 340 2.0 6.0 0.00 0.00 0.00 74 1010.9
20260905114844 72 337 1.0 6.0 0.00 0.00 0.00 74 1010.8
20260905114334 72 17 2.0 5.0 0.00 0.00 0.00 74 1010.9
20260905113826 72 336 2.0 5.0 0.00 0.00 0.00 74 1010.8
20260905113317 72 298 2.0 6.0 0.00 0.00 0.00 74 1010.8
20260905112848 72 304 3.0 6.0 0.00 0.00 0.00 74 1010.7
20260905112321 72 355 3.0 7.0 0.00 0.00 0.00 74 1010.7
20260905111812 72 336 4.0 7.0 0.00 0.00 0.00 75 1010.6
20260905111330 72 328 1.0 7.0 0.00 0.00 0.00 75 1010.5
20260905110822 72 320 3.0 7.0 0.00 0.00 0.00 76 1010.5
20260905110355 72 344 1.0 4.0 0.00 0.00 0.00 77 1010.4
20260905105845 72 306 1.0 3.0 0.00 0.00 0.00 77 1010.3
20260905105335 72 331 0.0 2.0 0.00 0.00 0.00 77 1010.3
20260905104826 72 313 1.0 2.0 0.00 0.00 0.00 77 1010.3
20260905103828 72 294 1.0 4.0 0.00 0.00 0.00 77 1010.0
20260905103320 72 324 2.0 4.0 0.00 0.00 0.00 77 1010.1
20260905102831 72 336 1.0 3.0 0.00 0.00 0.00 77 1010.1
20260905102323 72 325 1.0 2.0 0.00 0.00 0.00 77 1010.1
20260905101818 73 330 0.0 3.0 0.00 0.00 0.00 76 1010.0
20260905101330 73 323 1.0 3.0 0.00 0.00 0.00 76 1009.9
20260905100822 73 277 1.0 3.0 0.00 0.00 0.00 76 1009.9
20260905100333 73 322 2.0 5.0 0.00 0.00 0.00 76 1009.8
20260905095824 73 355 2.0 5.0 0.00 0.00 0.00 75 1009.8
20260905095315 73 5 3.0 5.0 0.00 0.00 0.00 75 1009.9
20260905094826 73 289 3.0 5.0 0.00 0.00 0.00 74 1010.1
20260905094318 73 348 1.0 2.0 0.00 0.00 0.00 74 1010.1
20260905093814 73 348 0.0 4.0 0.00 0.00 0.00 74 1010.0
20260905093325 73 264 0.0 4.0 0.00 0.00 0.00 74 1010.0
20260905092817 73 327 1.0 4.0 0.00 0.00 0.00 73 1009.9
20260905092328 73 259 1.0 4.0 0.00 0.00 0.00 73 1009.8
20260905091820 73 332 2.0 4.0 0.00 0.00 0.00 73 1009.8
20260905091331 73 315 0.0 3.0 0.00 0.00 0.00 73 1009.8
20260905090823 73 338 1.0 4.0 0.00 0.00 0.00 73 1009.8
20260905090315 73 5 1.0 4.0 0.00 0.00 0.00 74 1009.8
20260905085829 73 306 0.0 2.0 0.00 0.00 0.00 74 1009.9
20260905085321 73 255 0.0 4.0 0.00 0.00 0.00 73 1009.8
20260905084832 73 323 2.0 5.0 0.00 0.00 0.00 73 1009.8
20260905084323 74 349 3.0 5.0 0.00 0.00 0.00 73 1009.8
20260905083815 74 355 1.0 5.0 0.00 0.00 0.00 73 1009.8
20260905083346 74 322 2.0 4.0 0.00 0.00 0.00 73 1009.8
20260905082837 74 304 1.0 2.0 0.00 0.00 0.00 73 1009.9
20260905082327 74 296 0.0 3.0 0.00 0.00 0.00 73 1009.8
20260905081818 74 286 1.0 3.0 0.00 0.00 0.00 73 1009.9
20260905081329 74 305 0.0 2.0 0.00 0.00 0.00 72 1009.9
20260905080825 74 305 1.0 2.0 0.00 0.00 0.00 72 1009.9
20260905075831 74 324 1.0 4.0 0.00 0.00 0.00 72 1009.9
20260905075322 74 345 1.0 4.0 0.00 0.00 0.00 72 1009.9
20260905074816 74 263 1.0 3.0 0.00 0.00 0.00 71 1009.9
20260905074327 74 355 1.0 2.0 0.00 0.00 0.00 71 1009.8
20260905073818 75 341 1.0 5.0 0.00 0.01 0.00 71 1009.9
20260905073333 75 319 2.0 5.0 0.00 0.01 0.00 70 1009.9
20260905071832 75 302 1.0 3.0 0.00 0.01 0.00 70 1009.9
20260905071323 75 304 1.0 4.0 0.00 0.01 0.00 69 1010.0
20260905070819 75 333 1.0 4.0 0.00 0.01 0.00 69 1010.0
20260905070329 75 304 1.0 6.0 0.00 0.01 0.00 68 1009.9
20260905065822 75 317 3.0 6.0 0.00 0.01 0.00 68 1009.9
20260905065334 75 314 1.0 4.0 0.00 0.01 0.00 68 1009.9
20260905064828 75 337 2.0 4.0 0.00 0.01 0.00 68 1009.9
20260905064320 75 331 2.0 4.0 0.00 0.01 0.00 68 1010.0
20260905063815 76 338 2.0 5.0 0.00 0.01 0.00 68 1010.0
20260905063329 76 315 2.0 5.0 0.00 0.01 0.00 67 1010.0
20260905062821 76 311 3.0 6.0 0.00 0.01 0.00 67 1010.0
20260905062315 76 345 4.0 6.0 0.00 0.01 0.00 67 1010.1
20260905061829 76 18 2.0 6.0 0.00 0.01 0.00 67 1010.1
20260905061321 76 355 4.0 7.0 0.00 0.01 0.00 67 1010.1
20260905060817 76 35 3.0 7.0 0.00 0.01 0.00 67 1010.1
20260905060329 76 36 3.0 5.0 0.00 0.01 0.00 68 1010.2
20260905055820 76 305 2.0 8.0 0.00 0.01 0.00 67 1010.3
20260905055331 76 314 4.0 8.0 0.00 0.01 0.00 67 1010.3
20260905054823 76 344 3.0 7.0 0.00 0.01 0.00 67 1010.3
20260905054315 76 31 3.0 6.0 0.00 0.01 0.00 67 1010.3
20260905053826 76 51 4.0 7.0 0.00 0.01 0.00 67 1010.4
20260905053317 76 5 4.0 7.0 0.00 0.01 0.00 67 1010.5
20260905052833 76 5 4.0 7.0 0.00 0.01 0.00 67 1010.5
20260905052324 76 355 3.0 5.0 0.00 0.01 0.00 68 1010.5